Location: Invercargill
(46.4000°S, 168.3500°E)
Time: 18:43:59
(UTC+12:00)

NOSS 0 Rocket - Pass Details

Date: 14 May 2021
Orbit: 934 x 956 km, 70.0° (Epoch: 14 June)

Event Time Altitude Azimuth Distance (km) Brightness Sun altitude
Rises 19:17:53 0° 328° (NNW) 3,624 7.6 -19.4°
Reaches altitude 10° 19:20:25 10° 326° (NW) 2,683 6.8 -19.8°
Maximum altitude 19:26:40 75° 241° (WSW) 995 4.1 -20.9°
Enters shadow 19:31:59 15° 156° (SSE) 2,345 5.7 -21.8°
